Location: Nashville
(36.1660°N, 86.7840°W)
Time: 17:27:10
(UTC-06:00)

Tiangong - Pass Details

Date: 04 December 2022
Orbit: 383 x 386 km, 41.5° (Epoch: 28 January)

Event Time Altitude Azimuth Distance (km) Brightness Sun altitude
Rises 18:04:03 0° 285° (WNW) 2,258 2.8 -18.1°
Reaches altitude 10° 18:06:17 10° 297° (WNW) 1,407 1.4 -18.5°
Enters shadow 18:08:52 29° 350° (N) 745 -0.8 -19.0°
